Location: Navalespino
(40.5894°N, 4.2660°W)
Time: 14:45:02
(UTC+00:00)

Cosmos 1727 Rocket - Pass Details

Date: 18 April 2024
Orbit: 959 x 997 km, 82.9° (Epoch: 21 May)

Event Time Altitude Azimuth Distance (km) Brightness Sun altitude
Exits shadow 21:55:12 82° 115° (ESE) 997 3.8 -28.8°
Maximum altitude 21:55:18 82° 96° (E) 996 3.8 -28.8°
Drops below altitude 10° 22:01:35 10° 9° (N) 2,732 6.8 -29.5°
Sets 22:04:05 0° 9° (N) 3,678 7.6 -29.8°
